Regional Weather Roundup
Issued by NWS Albany, NY

Home | Current Version | Previous Version | Text Only | Print | Product List | Glossary On
Versions: 1 2 3 4 5 6 7 8 9 10 11 12 13 14 15 16 17 18 19 20 21 22 23 24 25 26 27 28 29 30 31 32 33 34 35 36 37 38 39 40 41 42 43 44 45 46 47 48 49 50
000
ASUS41 KALY 311110
RWRALY

NEW YORK STATE HOURLY WEATHER ROUNDUP
NATIONAL WEATHER SERVICE ALBANY NY
700 AM EDT MON AUG 31 2015

NOTE: "FAIR" INDICATES FEW OR NO CLOUDS BELOW 12,000 FEET WITH NO
SIGNIFICANT WEATHER AND/OR NO OBSTRUCTIONS TO VISIBILITY.

NYZ032-033-038>043-046>054-057>066-NYZ062>081-311200-
EAST


CITY           SKY/WX    TMP DP  RH WIND       PRES   REMARKS
ALBANY         PTCLDY    65  63  93 CALM      30.01R FOG
GLENS FALLS    CLOUDY    61  59  93 CALM      29.99S FOG
POUGHKEEPSIE   PTCLDY    66  63  90 CALM      30.02R
NEWBURGH       MOCLDY    68  68 100 W7        30.03S
MONTGOMERY     MOCLDY    68  66  93 SW3       30.04R FOG
WHITE PLAINS   MOCLDY    73  67  81 W3        30.03R
ISLIP          MOCLDY    73  68  84 SW6       30.01R
NEW YORK CITY  MOCLDY    78  66  66 W6        30.02R
CENTRAL PARK   MOCLDY    76  67  73 CALM      30.06R
$$

NYZ005>009-017-018-044>046-055-056-311200-
CENTRAL


CITY           SKY/WX    TMP DP  RH WIND       PRES   REMARKS
FULTON         CLEAR     64  62  93 CALM      30.01R FOG
SYRACUSE       PTCLDY    61  61 100 CALM      30.01R FOG
ROME           CLEAR     59  58  96 CALM      30.02S
ELMIRA         FOG       64  64 100 NW3       30.06R VSB 1/8
BINGHAMTON     MOCLDY    65  64  97 MISG      30.08R FOG
MONTICELLO     PTCLDY    64  63  94 W3        30.10R
$$

NYZ026>034-041>043-311200-
NORTH


CITY           SKY/WX    TMP DP  RH WIND       PRES   REMARKS
WATERTOWN      MOCLDY    66  64  93 S6        29.98R FOG
FORT DRUM      NOT AVBL
MASSENA        MOCLDY    66  59  78 SW9       29.94S
SARANAC LAKE   MOCLDY    59  59 100 SW3       29.99S FOG
PLATTSBURGH    CLEAR     62  58  86 S3        29.94S
$$

NYZ001>004-010>016-019>021-311200-
WEST


CITY           SKY/WX    TMP DP  RH WIND       PRES   REMARKS
NIAGARA FALLS  FOG       66  64  93 CALM      30.02R VSB 1
BUFFALO        PTCLDY    67  64  90 S6        30.03R
DUNKIRK        CLEAR     68  65  90 SW6       30.05R
JAMESTOWN      CLEAR     63  61  94 SW7       30.10R
WELLSVILLE     CLEAR     66  63  90 SW5       30.13R FOG
ROCHESTER      PTCLDY    64  62  93 SW6       30.02R FOG
PENN YAN       CLEAR     67  65  93 SW6       30.05R
$$

             KEY
       WCI = WIND CHILL INDEX
       VSB = VISIBILITY
       HX  = HEAT INDEX
$$


USA.gov is the U.S. government's official web portal to all federal, state and local government web resources and services.